Flag for U.S.A. Weather past 2 weeks in Winston-Salem, North Carolina, U.S.A.

Now
70 °F

Clear.


Feels Like: 75 °F
Forecast: 60 / 82 °F
Wind: No wind

Location: Smith Reynolds Airport

Current Time: Jul 29, 2014 at 10:59:56 PM

Latest Report: Jul 29, 2014 at 9:54 PM


Visibility: 10 mi

Pressure: 29.98 "Hg

Humidity: 66%

Dew point: 58 °F

Location of Winston-SalemLocation

Historic Weather in Winston-Salem — Graph

°F

Winston-Salem temperature yesterday

Maximum temperature yesterday: 86 °F (at 3:54 PM)
Minimum temperature yesterday: 70 °F (at 4:54 AM)
Average temperature yesterday: 77 °F

Past Weeks' High & Low Weather Summary

 TemperatureHumidityPressure
High90 °F (Jul 23, 2:54 PM)94% (Jul 19, 11:54 PM)30.21 "Hg (Jul 19, 11:54 PM)
Low59 °F (Jul 17, 6:54 AM)26% (Jul 16, 6:54 PM)29.75 "Hg (Jul 15, 4:54 PM)
Average75 °F69%30.00 "Hg
* Reported Jul 14 9:54 PM — Jul 29 9:54 PM, Winston-Salem, Weather by CustomWeather, © 2014

Note: Actual official high and low records may vary slightly from our data, if they occured in-between our weather recording intervals... More about our weather records

Advertising

Winston-Salem weather history for previous 24 hours

 ConditionsComfort  
Time TempWeatherWind HumidityBarometerVisibility
9:54 PM
Jul 29
70 °FClear.No wind66%29.98 "Hg10 mi
8:54 PM71 °FMore clouds than sun.No wind68%29.96 "Hg10 mi
7:54 PM78 °FSunny.No wind39%29.94 "Hg10 mi
6:54 PM79 °FScattered clouds.3 mph39%29.94 "Hg10 mi
5:54 PM79 °FPartly sunny.3 mph38%29.94 "Hg10 mi
4:54 PM80 °FPartly sunny.10 mph38%29.93 "Hg10 mi
3:54 PM79 °FMore clouds than sun.9 mph34%29.93 "Hg10 mi
2:54 PM78 °FPartly sunny.6 mph42%29.93 "Hg10 mi
1:54 PM77 °FPartly sunny.5 mph45%29.94 "Hg10 mi
12:54 PM77 °FPartly sunny.3 mph44%29.96 "Hg10 mi
11:54 AM74 °FPassing clouds.3 mph48%29.97 "Hg10 mi
10:54 AM74 °FPassing clouds.5 mph52%29.98 "Hg10 mi
9:54 AM71 °FOvercast.7 mph61%29.98 "Hg10 mi
8:54 AM70 °FSunny.7 mph61%29.97 "Hg10 mi
7:54 AM66 °FSunny.No wind70%29.96 "Hg10 mi
6:54 AM61 °FClear.No wind81%29.95 "Hg10 mi
5:54 AM61 °FClear.3 mph78%29.93 "Hg10 mi
4:54 AM65 °FPassing clouds.3 mph68%29.90 "Hg10 mi
3:54 AM66 °FClear.3 mph65%29.89 "Hg10 mi
2:54 AM66 °FClear.7 mph68%29.88 "Hg10 mi
1:54 AM68 °FClear.7 mph61%29.89 "Hg10 mi
12:54 AM70 °FClear.6 mph57%29.90 "Hg10 mi
11:54 PM
Jul 28
71 °FClear.13 mph53%29.90 "Hg10 mi
10:54 PM72 °FPassing clouds.10 mph55%29.89 "Hg10 mi
Weather by CustomWeather, © 2014

See weather overviewHow to use our weather pages